timestamp,surface_pressure_avg,surface_temp_avg,battery_voltage,lat,long
2023-10-16 00:09:00+00:00,367.2462,12.82,11.61,47.84626,-54.09684
2023-10-16 00:19:00+00:00,372.5996,12.82,11.61,47.84626,-54.09684
2023-10-16 00:29:00+00:00,373.4045,12.8,11.61,47.84626,-54.09684
2023-10-16 00:39:00+00:00,363.3313,12.8,11.61,47.84626,-54.09684
2023-10-16 00:49:00+00:00,359.3196,12.78,11.61,47.84626,-54.09684
2023-10-16 00:59:00+00:00,364.4346,12.8,11.61,47.84626,-54.09684
2023-10-16 01:09:00+00:00,362.288,12.7,11.61,47.84626,-54.09684
2023-10-16 01:19:01+00:00,358.0163,12.67,11.61,47.84626,-54.09684
2023-10-16 01:29:01+00:00,359.6146,12.69,11.61,47.84626,-54.09684
2023-10-16 01:39:01+00:00,359.033,12.7,11.61,47.84626,-54.09684
2023-10-16 01:49:01+00:00,349.6296,12.62,11.61,47.84626,-54.09684
2023-10-16 01:59:01+00:00,341.5647,12.66,11.61,47.84626,-54.09684
2023-10-16 02:09:01+00:00,340.8347,12.7,11.61,47.84626,-54.09684
2023-10-16 02:19:00+00:00,334.9363,12.7,11.61,47.84626,-54.09684
2023-10-16 02:29:00+00:00,321.9897,12.69,11.61,47.84626,-54.09684
2023-10-16 02:39:00+00:00,316.1663,12.7,11.61,47.84626,-54.09684
2023-10-16 02:49:00+00:00,312.833,12.7,11.61,47.84626,-54.09684
2023-10-16 02:59:00+00:00,300.2197,12.6,11.61,47.84626,-54.09684
2023-10-16 03:09:00+00:00,286.0047,12.5,11.61,47.84626,-54.09684
2023-10-16 03:19:00+00:00,285.0164,12.69,11.53,47.84626,-54.09684
2023-10-16 03:29:00+00:00,284.4681,12.5,11.53,47.84626,-54.09684
2023-10-16 03:39:00+00:00,274.7414,12.43,11.53,47.84626,-54.09684
2023-10-16 03:49:00+00:00,266.8997,12.5,11.53,47.84626,-54.09684
2023-10-16 03:59:00+00:00,266.2114,12.5,11.53,47.84626,-54.09684
2023-10-16 04:09:00+00:00,261.7447,12.5,11.53,47.84626,-54.09684
2023-10-16 04:19:00+00:00,250.6764,12.45,11.53,47.84626,-54.09684
2023-10-16 04:29:00+00:00,239.0881,12.4,11.53,47.84626,-54.09684
2023-10-16 04:39:00+00:00,231.4247,12.43,11.53,47.84626,-54.09684
2023-10-16 04:49:00+00:00,225.0414,12.44,11.53,47.84626,-54.09684
2023-10-16 04:59:00+00:00,220.0064,12.5,11.53,47.84626,-54.09684
2023-10-16 05:09:00+00:00,215.9431,12.5,11.53,47.84626,-54.09684
2023-10-16 05:19:00+00:00,212.3648,12.5,11.53,47.84626,-54.09684
2023-10-16 05:29:00+00:00,214.6031,12.55,11.53,47.84626,-54.09684
2023-10-16 05:39:00+00:00,216.3831,12.59,11.53,47.84626,-54.09684
2023-10-16 05:49:00+00:00,211.3898,12.59,11.53,47.84626,-54.09684
2023-10-16 05:59:00+00:00,211.8864,12.6,11.53,47.84626,-54.09684
2023-10-16 06:09:00+00:00,218.1665,12.6,11.53,47.84626,-54.09684
2023-10-16 06:19:00+00:00,213.3898,12.62,11.53,47.84626,-54.09684
2023-10-16 06:29:00+00:00,207.0865,12.66,11.53,47.84626,-54.09684
2023-10-16 06:39:00+00:00,210.1415,12.69,11.53,47.84626,-54.09684
2023-10-16 06:49:00+00:00,211.4381,12.7,11.53,47.84626,-54.09684
2023-10-16 06:59:00+00:00,211.2831,12.7,11.53,47.84626,-54.09684
2023-10-16 07:09:00+00:00,218.3364,12.6,11.53,47.84626,-54.09684
2023-10-16 07:19:00+00:00,225.8781,12.6,11.53,47.84626,-54.09684
2023-10-16 07:29:00+00:00,226.4164,12.63,11.53,47.84626,-54.09684
2023-10-16 07:39:00+00:00,233.9248,12.67,11.53,47.84626,-54.09684
2023-10-16 07:49:00+00:00,249.8764,12.64,11.53,47.84626,-54.09684
2023-10-16 07:59:00+00:00,253.7831,12.67,11.53,47.84626,-54.09684
2023-10-16 08:09:00+00:00,252.7481,12.66,11.53,47.84626,-54.09684
2023-10-16 08:19:00+00:00,257.3931,12.6,11.53,47.84626,-54.09684
2023-10-16 08:29:00+00:00,267.7448,12.6,11.53,47.84626,-54.09684
2023-10-16 08:39:00+00:00,270.6031,12.56,11.53,47.84626,-54.09684
2023-10-16 08:49:00+00:00,280.6147,12.64,11.53,47.84626,-54.09684
2023-10-16 08:59:00+00:00,293.1564,12.67,11.53,47.84626,-54.09684
2023-10-16 09:09:00+00:00,302.6664,12.6,11.53,47.84626,-54.09684
2023-10-16 09:19:01+00:00,297.8364,12.59,11.53,47.84626,-54.09684
2023-10-16 09:29:01+00:00,307.4247,12.6,11.53,47.84626,-54.09684
2023-10-16 09:39:01+00:00,325.4863,12.6,11.53,47.84626,-54.09684
2023-10-16 09:49:01+00:00,333.30300000000005,12.59,11.53,47.84626,-54.09684
2023-10-16 09:59:01+00:00,329.5546,12.6,11.53,47.84626,-54.09684
2023-10-16 10:09:01+00:00,339.233,12.6,11.53,47.84626,-54.09684
2023-10-16 10:19:00+00:00,347.0914,12.6,11.53,47.84626,-54.09684
2023-10-16 10:29:00+00:00,351.8413,12.6,11.53,47.84626,-54.09684
2023-10-16 10:39:00+00:00,354.00300000000016,12.61,11.53,47.84626,-54.09684
2023-10-16 10:49:00+00:00,363.4012,12.69,11.53,47.84626,-54.09684
2023-10-16 10:59:00+00:00,373.6679,12.65,11.53,47.84626,-54.09684
2023-10-16 11:09:00+00:00,374.7263,12.6,11.53,47.84626,-54.09684
2023-10-16 11:19:00+00:00,375.1196,12.63,11.53,47.84626,-54.09684
2023-10-16 11:29:00+00:00,381.2728,12.6,11.53,47.84626,-54.09684
2023-10-16 11:39:00+00:00,386.1947,12.6,11.53,47.84626,-54.09684
2023-10-16 11:49:00+00:00,389.3829,12.6,11.53,47.84626,-54.09684
2023-10-16 11:59:00+00:00,387.7029,12.6,11.53,47.84626,-54.09684
2023-10-16 12:09:00+00:00,392.3412,12.6,11.53,47.84626,-54.09684
2023-10-16 12:19:00+00:00,394.5895,12.59,11.53,47.84626,-54.09684
2023-10-16 12:29:00+00:00,391.0779,12.55,11.53,47.84626,-54.09684
2023-10-16 12:39:00+00:00,388.5079,12.5,11.53,47.84626,-54.09684
2023-10-16 12:49:00+00:00,386.4479,12.5,11.53,47.84626,-54.09684
2023-10-16 12:59:00+00:00,391.3495,12.5,11.53,47.84626,-54.09684
2023-10-16 13:09:00+00:00,392.3129,12.5,11.53,47.84626,-54.09684
2023-10-16 13:19:00+00:00,382.6213,12.5,11.53,47.84626,-54.09684
2023-10-16 13:29:00+00:00,382.5596,12.5,11.53,47.84626,-54.09684
2023-10-16 13:39:00+00:00,388.2645,12.5,11.53,47.84626,-54.09684
2023-10-16 13:49:00+00:00,384.1746,12.48,11.53,47.84626,-54.09684
2023-10-16 13:59:00+00:00,374.468,12.56,11.53,47.84626,-54.09684
2023-10-16 14:09:00+00:00,372.2812,12.5,11.53,47.84626,-54.09684
2023-10-16 14:19:00+00:00,368.1062,12.49,11.53,47.84626,-54.09684
2023-10-16 14:29:00+00:00,355.483,12.5,11.53,47.84626,-54.09684
2023-10-16 14:39:00+00:00,346.0997,12.6,11.53,47.84626,-54.09684
2023-10-16 14:49:00+00:00,341.4029,12.59,11.53,47.84626,-54.09684
2023-10-16 14:59:00+00:00,337.7063,12.58,11.53,47.84626,-54.09684
2023-10-16 15:09:00+00:00,332.0564,12.6,11.53,47.84626,-54.09684
2023-10-16 15:19:00+00:00,320.928,12.67,11.46,47.84626,-54.09684
2023-10-16 15:29:00+00:00,309.6696,12.7,11.46,47.84626,-54.09684
2023-10-16 15:39:00+00:00,309.5964,12.5,11.46,47.84626,-54.09684
2023-10-16 15:49:00+00:00,297.6997,12.4,11.46,47.84626,-54.09684
2023-10-16 15:59:00+00:00,280.8914,12.48,11.46,47.84626,-54.09684
2023-10-16 16:09:00+00:00,269.5064,12.48,11.46,47.84626,-54.09684
2023-10-16 16:19:01+00:00,266.5814,12.44,11.53,47.84626,-54.09684
2023-10-16 16:29:01+00:00,258.2748,12.44,11.53,47.84626,-54.09684
2023-10-16 16:39:01+00:00,245.2397,12.5,11.53,47.84626,-54.09684
2023-10-16 16:49:01+00:00,241.3531,12.49,11.53,47.84626,-54.09684
2023-10-16 16:59:01+00:00,239.0814,12.5,11.53,47.84626,-54.09684
2023-10-16 17:09:01+00:00,230.6014,12.5,11.53,47.84626,-54.09684
2023-10-16 17:19:01+00:00,224.0031,12.5,11.53,47.84626,-54.09684
2023-10-16 17:29:01+00:00,221.7764,12.5,11.53,47.84626,-54.09684
2023-10-16 17:39:01+00:00,211.6698,12.5,11.53,47.84626,-54.09684
2023-10-16 17:49:01+00:00,201.5031,12.5,11.53,47.84626,-54.09684
2023-10-16 17:59:01+00:00,203.9715,12.5,11.53,47.84626,-54.09684
2023-10-16 18:09:01+00:00,197.6098,12.5,11.53,47.84626,-54.09684
2023-10-16 18:19:00+00:00,186.8531,12.5,11.53,47.84626,-54.09684
2023-10-16 18:29:00+00:00,190.2831,12.5,11.53,47.84626,-54.09684
2023-10-16 18:39:00+00:00,193.7181,12.5,11.53,47.84626,-54.09684
2023-10-16 18:49:00+00:00,188.3282,12.5,11.53,47.84626,-54.09684
2023-10-16 18:59:00+00:00,188.8181,12.51,11.53,47.84626,-54.09684
2023-10-16 19:09:00+00:00,197.4081,12.5,11.53,47.84626,-54.09684
2023-10-16 19:19:01+00:00,196.6564,12.5,11.46,47.84626,-54.09684
2023-10-16 19:29:01+00:00,194.5648,12.5,11.46,47.84626,-54.09684
2023-10-16 19:39:01+00:00,195.9898,12.52,11.46,47.84626,-54.09684
2023-10-16 19:49:01+00:00,198.8315,12.5,11.46,47.84626,-54.09684
2023-10-16 19:59:01+00:00,204.2214,12.5,11.46,47.84626,-54.09684
2023-10-16 20:09:01+00:00,212.1881,12.55,11.46,47.84626,-54.09684
2023-10-16 20:19:00+00:00,216.6814,12.6,11.46,47.84626,-54.09684
2023-10-16 20:29:00+00:00,223.0481,12.6,11.46,47.84626,-54.09684
2023-10-16 20:39:00+00:00,227.2631,12.52,11.46,47.84626,-54.09684
2023-10-16 20:49:00+00:00,232.2914,12.54,11.46,47.84626,-54.09684
2023-10-16 20:59:00+00:00,239.5214,12.5,11.46,47.84626,-54.09684
2023-10-16 21:09:00+00:00,246.2298,12.47,11.46,47.84626,-54.09684
2023-10-16 21:19:00+00:00,249.2264,12.49,11.46,47.84626,-54.09684
2023-10-16 21:29:00+00:00,255.0398,12.46,11.46,47.84626,-54.09684
2023-10-16 21:39:00+00:00,263.2131,12.47,11.46,47.84626,-54.09684
2023-10-16 21:49:00+00:00,272.598,12.4,11.46,47.84626,-54.09684
2023-10-16 21:59:00+00:00,273.6181,12.39,11.46,47.84626,-54.09684
2023-10-16 22:09:00+00:00,278.2481,12.4,11.46,47.84626,-54.09684
2023-10-16 22:19:00+00:00,285.9214,12.45,11.46,47.84626,-54.09684
2023-10-16 22:29:00+00:00,294.4231,12.4,11.46,47.84626,-54.09684
2023-10-16 22:39:00+00:00,294.918,12.4,11.46,47.84626,-54.09684
2023-10-16 22:49:00+00:00,301.1398,12.45,11.46,47.84626,-54.09684
2023-10-16 22:59:00+00:00,309.5214,12.44,11.46,47.84626,-54.09684
2023-10-16 23:09:00+00:00,314.593,12.4,11.46,47.84626,-54.09684
2023-10-16 23:19:00+00:00,315.5646,12.4,11.46,47.84626,-54.09684
2023-10-16 23:29:00+00:00,325.8529,12.4,11.46,47.84626,-54.09684
2023-10-16 23:39:00+00:00,331.8746,12.3,11.46,47.84626,-54.09684
2023-10-16 23:49:00+00:00,330.2196,12.26,11.46,47.84626,-54.09684
2023-10-16 23:59:00+00:00,329.3113,12.3,11.46,47.84626,-54.09684
